Weather History for St. Petersburg, FL

Change the Weather History Date:

Thursday, June 13, 2013

  Actual Average Record
Temperature  
Mean Temperature 85 °F -  
Max Temperature 91 °F 89 °F 95 °F (1964)
Min Temperature 81 °F 75 °F 69 °F (1960)
Cooling Degree Days 20    
Growing Degree Days 35 (Base 50)    
Moisture  
Dew Point 74 °F    
Average Humidity 72    
Maximum Humidity 85    
Minimum Humidity 55    
Precipitation  
Precipitation 0.00 in - - ()
Sea Level Pressure  
Sea Level Pressure 29.99 in    
Wind  
Wind Speed 5 mph (NW)    
Max Wind Speed 13 mph    
Max Gust Speed 16 mph    
Visibility 10 miles    
Events      
Averages and records for this station are not official NWS values.
T = Trace of Precipitation, MM = Missing Value Source: NWS Daily Summary

Daily Weather History Graph

Daily Weather History Graph

Search for Another Location

Airport:

Trip Planner

Search our weather history database for the weather conditions in past years. The results will help you decide how hot, cold, wet, or windy it might be!

Date:

Astronomy

Jun. 13, 2013 Rise Set
Actual Time 6:34 AM EDT 8:27 PM EDT
Civil Twilight 6:07 AM EDT 8:53 PM EDT
Nautical Twilight 5:35 AM EDT 9:26 PM EDT
Astronomical Twilight 5:01 AM EDT 10:00 PM EDT
Moon 10:50 AM EDT (6/13) 11:55 PM EDT (6/13)
Length of Visible Light 14h 46m
Length of Day
13h 53m
Waxing Crescent, 21% of the Moon is Illuminated
Jun 13
Waxing Crescent
Jun 16
First Quarter
Jun 23
Full
Jun 30
Last Quarter
Jul 8
New

Hourly Weather History & Observations

Time (EDT) Temp. Heat Index Dew Point Humidity Pressure Visibility Wind Dir Wind Speed Gust Speed Precip Events Conditions
12:53 AM 82.9 °F 90.2 °F 75.0 °F 77% 30.03 in 10.0 mi North 3.5 mph - N/A   Clear
1:53 AM 82.9 °F 90.2 °F 75.0 °F 77% 30.01 in 10.0 mi NW 3.5 mph - N/A   Clear
2:53 AM 82.0 °F 90.2 °F 77.0 °F 85% 30.00 in 10.0 mi South 6.9 mph - N/A   Mostly Cloudy
3:09 AM 82.0 °F 88.6 °F 75.0 °F 79% 30.00 in 10.0 mi Calm Calm - N/A   Scattered Clouds
3:53 AM 82.0 °F 88.6 °F 75.0 °F 79% 30.00 in 10.0 mi Calm Calm - N/A   Partly Cloudy
4:53 AM 82.0 °F 88.6 °F 75.0 °F 79% 29.99 in 10.0 mi West 3.5 mph - N/A   Clear
5:53 AM 82.0 °F 89.4 °F 75.9 °F 82% 29.98 in 10.0 mi NNW 3.5 mph - N/A   Partly Cloudy
6:53 AM 81.0 °F 87.3 °F 75.9 °F 85% 30.01 in 10.0 mi Calm Calm - N/A   Clear
7:53 AM 82.0 °F 89.4 °F 75.9 °F 82% 30.01 in 10.0 mi North 4.6 mph - N/A   Partly Cloudy
8:35 AM 82.9 °F 90.8 °F 75.9 °F 79% 30.03 in 10.0 mi North 4.6 mph - N/A   Mostly Cloudy
8:53 AM 82.9 °F 90.2 °F 75.0 °F 77% 30.04 in 10.0 mi North 8.1 mph - N/A   Mostly Cloudy
9:51 AM 84.2 °F 90.9 °F 73.4 °F 70% 30.04 in 10.0 mi NW 5.8 mph - N/A   Mostly Cloudy
9:53 AM 84.0 °F 91.2 °F 73.9 °F 72% 30.04 in 10.0 mi NW 3.5 mph - N/A   Scattered Clouds
10:53 AM 84.9 °F 91.4 °F 73.0 °F 67% 30.04 in 10.0 mi WNW 5.8 mph - N/A   Scattered Clouds
11:53 AM 87.1 °F 94.5 °F 73.0 °F 63% 30.03 in 10.0 mi NNW 6.9 mph - N/A   Scattered Clouds
12:53 PM 87.1 °F 94.5 °F 73.0 °F 63% 30.03 in 10.0 mi Variable 4.6 mph - N/A   Mostly Cloudy
1:53 PM 88.0 °F 94.7 °F 72.0 °F 59% 30.00 in 10.0 mi Variable 5.8 mph - N/A   Mostly Cloudy
2:53 PM 88.0 °F 94.7 °F 72.0 °F 59% 29.97 in 10.0 mi North 8.1 mph - N/A   Scattered Clouds
3:53 PM 89.1 °F 96.0 °F 72.0 °F 57% 29.96 in 10.0 mi WNW 9.2 mph - N/A   Clear
4:53 PM 88.0 °F 92.9 °F 70.0 °F 55% 29.96 in 10.0 mi WNW 10.4 mph - N/A   Clear
5:53 PM 88.0 °F 93.8 °F 71.1 °F 57% 29.94 in 10.0 mi WNW 6.9 mph - N/A   Clear
6:53 PM 86.0 °F 92.2 °F 72.0 °F 63% 29.93 in 10.0 mi WNW 10.4 mph - N/A   Clear
7:53 PM 84.9 °F 91.4 °F 73.0 °F 67% 29.91 in 10.0 mi WNW 12.7 mph 16.1 mph N/A   Clear
8:53 PM 84.0 °F 91.9 °F 75.0 °F 74% 29.92 in 10.0 mi West 8.1 mph - N/A   Clear
9:53 PM 82.9 °F 89.4 °F 73.9 °F 74% 29.92 in 10.0 mi WSW 8.1 mph - N/A   Clear
10:53 PM 82.9 °F 89.4 °F 73.9 °F 74% 29.94 in 10.0 mi West 8.1 mph - N/A   Clear
11:53 PM 82.0 °F 88.6 °F 75.0 °F 79% 29.94 in 10.0 mi WSW 5.8 mph - N/A   Clear